Home > Weather > Oshawa > Past weeks

Flag for Canada Weather for the Past 2 Weeks in Oshawa, Ontario, Canada

Now
46 °F

Light rain. Haze.


Feels Like: 43 °F
Forecast: 44 / 49 °F
Wind: 7 mph from East

Location: Toronto Buttonville

Current Time: May 1, 2016 at 5:14:09 AM

Latest Report: May 1, 2016 at 4:00 AM


Visibility: 11 mi

Pressure: 30.05 "Hg

Humidity: 76%

Dew Point: 39 °F

Location of OshawaLocation

Historic Weather in Oshawa — Graph

°F

Oshawa Temperature Yesterday

Maximum temperature yesterday: 57 °F (at 3:00 PM)
Minimum temperature yesterday: 36 °F (at 4:00 AM)
Average temperature yesterday: 48 °F

High & Low Weather Summary for the Past Weeks

 TemperatureHumidityPressure
High75 °F (Apr 18, 2:00 PM)94% (Apr 21, 11:00 PM)30.50 "Hg (Apr 21, 11:00 PM)
Low32 °F (Apr 27, 4:00 AM)13% (Apr 20, 5:00 PM)29.74 "Hg (Apr 26, 5:00 AM)
Average47 °F52%30.13 "Hg
* Reported Apr 16 4:00 AM — May 1 4:00 AM, Oshawa, Weather by CustomWeather, © 2016

Note: Actual official high and low records may vary slightly from our data, if they occured in-between our weather recording intervals... More about our weather records

Advertising

Oshawa Weather History for the Previous 24 Hours

Scroll right to see more
 ConditionsComfort  
Time TempWeatherWind HumidityBarometerVisibility
4:00 AM
Sun, May 1
46 °FLight rain. Haze.7 mph76%30.05 "Hg11 mi
3:00 AM48 °FSprinkles. Mostly cloudy.7 mph54%30.06 "Hg12 mi
2:46 AM50 °FSprinkles. Haze.8 mph47%30.06 "Hg13 mi
2:00 AM48 °FPartly cloudy.7 mph43%30.07 "Hg15 mi
1:00 AM48 °FPassing clouds.8 mph40%30.09 "Hg15 mi
12:00 AM48 °FPassing clouds.9 mph37%30.11 "Hg15 mi
11:00 PM
Sat, Apr 30
50 °FPassing clouds.7 mph32%30.12 "Hg15 mi
10:00 PM50 °FMostly cloudy.6 mph30%30.13 "Hg15 mi
9:00 PM50 °FMostly cloudy.7 mph32%30.13 "Hg15 mi
8:00 PM52 °FMostly cloudy.6 mph30%30.15 "Hg15 mi
7:00 PM54 °FPartly sunny.8 mph33%30.15 "Hg15 mi
6:00 PM55 °FOvercast.9 mph31%30.16 "Hg15 mi
5:00 PM57 °FPartly sunny.9 mph29%30.15 "Hg15 mi
4:00 PM55 °FPartly sunny.12 mph24%30.17 "Hg15 mi
3:00 PM57 °FPartly sunny.14 mph25%30.19 "Hg15 mi
2:00 PM55 °FPartly sunny.9 mph26%30.21 "Hg15 mi
1:00 PM54 °FPartly sunny.12 mph28%30.21 "Hg15 mi
12:00 PM54 °FScattered clouds.15 mph28%30.22 "Hg15 mi
11:00 AM54 °FScattered clouds.14 mph28%30.23 "Hg15 mi
10:00 AM54 °FPassing clouds.9 mph30%30.23 "Hg15 mi
9:00 AM52 °FPassing clouds.8 mph41%30.22 "Hg15 mi
8:00 AM45 °FPassing clouds.5 mph53%30.22 "Hg15 mi
7:00 AM37 °FPassing clouds.2 mph65%30.22 "Hg15 mi
6:00 AM36 °FPassing clouds.2 mph70%30.22 "Hg15 mi
5:00 AM36 °FClear.No wind70%30.19 "Hg15 mi
Weather by CustomWeather, © 2016

See weather overviewHow to use our weather pages